[ hide orbit diagram ]
For accurate long-term ephemerides, please instead use our Horizons system.This orbit viewer was implemented using two-body methods, and hence should not be used for determining accurate long-term trajectories (over several years or decades) or planetary encounter circumstances.
Orbital Elements at Epoch 2459200.5 (2020-Dec-17.0) TDB
Reference: JPL 16 (heliocentric ecliptic J2000)
Element | Value | Uncertainty (1-sigma) | Units |
e | .1133080922054751 | 3.9286e-08 | |
a | 3.105916388424913 | 1.8067e-08 | au |
q | 2.753990927902767 | 1.2004e-07 | au |
i | 2.719461649747164 | 4.8557e-06 | deg |
node | 71.75083269005998 | 8.8754e-05 | deg |
peri | 33.78203472910729 | 9.1792e-05 | deg |
M | 175.5846073606238 | 2.3598e-05 | deg |
tp | 2458225.359919451665 (2018-Apr-16.85991945) | 0.0001273 | TDB |
period | 1999.323484412258 5.47 | 1.7445e-05 4.776e-08 | d yr |
n | .180060907005166 | 1.5711e-09 | deg/d |
Q | 3.457841848947059 | 2.0114e-08 | au |
|
| | Orbit Determination Parameters
Additional Information
|
[ show covariance matrix ]
Physical Parameter Table
Parameter |
Symbol |
Value |
Units |
Sigma |
Reference |
Notes |
absolute magnitude |
H |
14.74 |
|
n/a |
E2021B10 |
|
|
58313 (1994 PX27) Discovered 1994-Aug-12 by Elst, E. W. at La Silla |
Reference: 20030614/Numbers.arc | Last Updated: 2004-04-19 |
|
[ hide close-approach data ]
Close-Approach Data ...sorted by Date/Time (TDB)
|
Date/Time (TDB) |
Time Uncertainty (days_HH:MM) |
Body |
Nominal Distance (au) |
Minimum Distance (au) |
Maximum Distance (au) |
V-relative (km/s) |
V-infinity (km/s) |
JD (TDB) |
Time Uncertainty (minutes) |
Semi-major axis (km) |
Semi-minor axis (km) |
range-LOV angle (deg) |
N-sigma |
BP |
Orbit Ref. |
Reference |
Modified |
1951-Feb-21 10:45 |
00:02 |
Jupiter |
1.75346164403607 |
1.75346085886759 |
1.75346242920486 |
2.55532969832357 |
2.35872745121847 |
2433698.947854701 |
1.76045388397241 |
87.0193545848009 |
9.51073985701192 |
84.6129816544494 |
1916618.25678251 |
T |
16 |
CATAB v2.0f-lin.ifort 2020-Nov-12 22:51:34 |
2020-Nov-12 22:51 |
1961-Jan-22 18:59 |
00:01 |
Jupiter |
1.73383790436274 |
1.73383743128294 |
1.73383837744234 |
2.03466823782866 |
1.77843346338304 |
2437322.291255079 |
1.47731903563059 |
58.8235028546176 |
11.3606889539403 |
89.2724213364111 |
2611743.03999041 |
T |
16 |
CATAB v2.0f-lin.ifort 2020-Nov-12 22:51:34 |
2020-Nov-12 22:51 |
2021-Nov-25 17:33 |
< 00:01 |
Jupiter |
1.69144833441945 |
1.691447912989 |
1.69144875584979 |
2.19645963973785 |
1.95522371033145 |
2459544.231592745 |
0.368892693765245 |
58.5006938545129 |
4.73401402061623 |
87.8264821849972 |
2579880.54434541 |
T |
16 |
CATAB v2.0f-lin.ifort 2020-Nov-12 22:51:34 |
2020-Nov-12 22:51 |
2031-Oct-29 19:30 |
< 00:01 |
Jupiter |
1.81226164807642 |
1.81226109261159 |
1.81226220354105 |
2.26013648681738 |
2.04290197466479 |
2463169.312840654 |
0.583578041917387 |
46.2664211108371 |
7.20658369239052 |
86.6741413530682 |
2253269.14311093 |
T |
16 |
CATAB v2.0f-lin.ifort 2020-Nov-12 22:51:34 |
2020-Nov-12 22:51 |
2082-Sep-21 19:41 |
00:02 |
Jupiter |
1.94609525386563 |
1.94609432306255 |
1.94609618466893 |
3.61203403156616 |
3.48945636401927 |
2481759.320381549 |
1.89955768922231 |
78.6745806325962 |
26.2789073653368 |
70.0746973970899 |
2159227.22267894 |
T |
16 |
CATAB v2.0f-lin.ifort 2020-Nov-12 22:51:34 |
2020-Nov-12 22:51 |
2092-Aug-30 17:22 |
00:02 |
Jupiter |
1.66232080330023 |
1.66232044213939 |
1.66232116446098 |
1.98507330135847 |
1.7092196207978 |
2485390.223855374 |
2.28204839966735 |
116.683247218205 |
16.4571004958696 |
-85.0065422340911 |
2759593.94559721 |
T |
16 |
CATAB v2.0f-lin.ifort 2020-Nov-12 22:51:34 |
2020-Nov-12 22:51 |
2102-Aug-09 11:12 |
00:02 |
Jupiter |
1.91293628269535 |
1.91293502348155 |
1.9129375419086 |
2.58888870828156 |
2.41179841246442 |
2489019.966575013 |
2.46086397264529 |
46.7677985878157 |
32.1880612088183 |
64.0107084175199 |
1264814.83267863 |
T |
16 |
CATAB v2.0f-lin.ifort 2020-Nov-12 22:51:34 |
2020-Nov-12 22:51 |
2153-Jul-06 22:57 |
00:04 |
Jupiter |
1.84594276014237 |
1.8459412105502 |
1.84594430973748 |
3.08124468174614 |
2.92854163939396 |
2507614.456543067 |
3.9090555937908 |
157.291481330989 |
21.7937111210595 |
73.529475906871 |
1936235.73902032 |
T |
16 |
CATAB v2.0f-lin.ifort 2020-Nov-12 22:51:34 |
2020-Nov-12 22:51 |
2163-Jun-08 09:01 |
00:04 |
Jupiter |
1.67314386688506 |
1.67314311953373 |
1.67314461424038 |
1.93266144173681 |
1.65005699841905 |
2511237.876004495 |
4.28439351821524 |
175.751330214128 |
17.5659234839352 |
-85.8326416827808 |
2907893.66187595 |
T |
16 |
CATAB v2.0f-lin.ifort 2020-Nov-12 22:51:34 |
2020-Nov-12 22:51 |
|
|